Simultaneous Nadir Overpasses (SNOs) Predictions

Prediction of SNOs between METOP-B and NOAA-19 Satellite Orbit:

Table of predicted SNOs for the next 14.0 days since TLE Epoch: 4/27/2024
Index Date (METOP-B) Time (METOP-B) Lat,Lon (METOP-B) SZA (METOP-B ) Date (NOAA-19) Time (NOAA-19) Lat,Lon (NOAA-19) SZA (NOAA-19 ) Distance(km) Time Diff (sec)
1 05/03/2024 07:42:44 -77.41,-112.31 118.48 05/03/2024 07:41:48 -77.41,-112.32 118.48 0.28 56
2 05/03/2024 08:33:21 77.55, 55.63 61.66 05/03/2024 08:32:40 77.53, 55.53 61.64 3.23 41
3 05/03/2024 09:23:57 -77.77,-136.01 118.11 05/03/2024 09:23:37 -77.77,-135.97 118.10 1.08 20
4 05/03/2024 10:14:35 77.86, 31.77 61.99 05/03/2024 10:14:30 77.85, 31.71 61.98 1.73 5
5 05/03/2024 11:05:11 -78.08,-159.82 117.79 05/03/2024 11:05:27 -78.09,-159.73 117.77 2.45 16
6 05/03/2024 11:55:49 78.17, 7.99 62.31 05/03/2024 11:56:20 78.16, 7.98 62.32 0.23 31
7 05/03/2024 12:46:28 -78.26, 175.79 117.60 05/03/2024 12:47:21 -78.24, 175.69 117.61 2.67 53



Historial Predications of SNOs between METOP-B and NOAA-19
